#timestamp,LO_Frequency,Hit,StdDev 
1599296415.9,286047002.3,N
1599296435.7,286047002.4,N
1599296455.6,286047000.1,N
1599296475.4,286047002.3,N
1599296495.2,286047002.3,N
1599296515.1,286047001.8,N
1599296516.0,286047001.8,N
1599296535.8,286046999.9,N
1599296555.7,286047000.3,N
1599296575.5,286047000.0,N
1599296595.3,286047002.3,N
1599296615.2,286047000.2,N
1599296635.0,286046999.7,N
1599296635.9,286046999.7,N
1599296655.7,286047000.4,N
1599296675.6,286046999.8,N
1599296695.4,286047000.3,N
1599296715.3,286047002.3,N
1599296735.1,286047002.4,N
1599296736.0,286047002.4,N
1599296755.8,286046999.8,N
1599296775.7,286047002.3,N
1599296795.5,286047002.8,N
1599296815.4,286047000.0,N
1599296835.2,286047002.5,N
1599296855.0,286046999.8,N
1599296855.9,286046999.8,N
1599296875.8,286047000.1,N
1599296895.6,286047000.0,N
1599296915.5,286047002.3,N
1599296935.3,286047004.4,Y
1599296955.1,286047002.2,P
1599296975.9,286047001.0,N
1599296995.7,286047000.7,N
1599297015.6,286046998.1,Y
1599297035.4,286046999.1,P
1599297055.2,286046996.6,P
1599297075.1,286046999.4,N
1599297076.0,286046999.4,N
1599297095.8,286046999.0,N
1599297115.7,286046998.7,N
1599297135.5,286046998.6,N
1599297155.3,286046998.6,N
1599297175.2,286047000.9,N
1599297195.0,286047000.6,N
1599297195.9,286047000.6,N
1599297215.8,286046998.2,N
1599297235.6,286046998.8,N
1599297255.4,286046998.9,N
1599297275.3,286046999.1,N
1599297295.1,286046999.5,N
1599297315.9,286046997.0,N
1599297335.7,286046997.2,N
1599297355.5,286046997.3,N
1599297375.4,286046996.8,N
1599297395.2,286046997.7,N
1599297415.0,286046996.7,N
1599297415.9,286046996.7,N
1599297435.8,286046996.7,N
1599297455.6,286046997.1,N
1599297475.5,286046998.9,N
1599297495.3,286046999.5,N
1599297515.1,286046996.9,N
1599297535.9,286046997.4,N
1599297555.7,286046997.4,N
1599297575.6,286046997.1,N
1599297595.4,286046997.2,N
1599297615.2,286046997.1,N
1599297635.1,286046994.9,Y
1599297636.0,286046994.9,P
1599297655.8,286046999.1,N
1599297675.7,286046998.5,N
1599297695.5,286046998.1,N
1599297715.3,286047000.0,N
1599297735.2,286047000.0,N
1599297755.0,286046999.9,N
1599297755.9,286046999.9,N
1599297775.8,286047000.8,N
1599297795.6,286047001.2,N
1599297815.4,286046998.8,N
1599297835.3,286046998.1,N
1599297855.1,286046998.8,N
1599297875.8,286046998.3,N
1599297895.7,286047001.1,N
1599297915.5,286046998.2,N
1599297935.4,286046998.4,N
1599297955.2,286046998.4,N
1599297975.0,286047001.9,N
1599297975.9,286047001.9,N
1599297995.8,286047002.8,N
1599298015.6,286046998.5,N
1599298035.5,286046998.8,N
1599298055.3,286047000.4,N
1599298075.1,286046998.9,N
1599298095.9,286047001.1,N
1599298115.7,286047000.4,N
1599298135.5,286046999.9,N
1599298155.4,286046999.8,N
1599298175.2,286046999.9,N
1599298195.1,286047000.0,N
1599298196.0,286047000.0,N
1599298215.8,286046999.8,N
1599298235.6,286047000.2,N
1599298255.5,286046999.7,N
1599298275.3,286047002.1,N
1599298295.2,286047002.0,N
1599298315.9,286047002.0,N
1599298335.7,286047002.5,N
1599298355.6,286047002.0,N
1599298375.4,286047002.3,N
1599298395.3,286047002.2,N
1599298415.1,286047002.2,N
1599298416.0,286047002.2,N
1599298435.8,286047001.6,N
1599298455.7,286047003.8,N
1599298475.5,286047003.0,N
1599298495.4,286047003.1,N
1599298515.2,286047001.4,N
1599298535.0,286047004.4,Y
1599298535.9,286047004.4,P
1599298555.8,286047001.7,N
1599298575.6,286046999.7,N
1599298595.5,286047002.1,N
1599298615.3,286047002.3,N
1599298635.1,286047002.8,N
1599298655.9,286047000.0,N
1599298675.7,286047001.1,N
1599298695.5,286046998.7,N
1599298715.4,286046999.2,N
1599298735.2,286046999.2,N
1599298755.1,286046998.2,N
1599298756.0,286046998.2,N
1599298775.8,286046998.9,N
1599298795.6,286046998.5,N
1599298815.5,286046998.6,N
1599298835.3,286046999.4,N
1599298855.2,286046998.1,N
1599298875.9,286046999.0,N
1599298895.7,286046996.5,N
1599298915.6,286046996.8,N
1599298935.4,286046996.6,N
1599298955.2,286046996.7,N
1599298975.1,286046996.8,N
1599298976.0,286046996.8,N
1599298995.8,286046997.7,N
1599299015.7,286046997.5,N
1599299035.5,286046997.8,N
1599299055.3,286046996.9,N
1599299075.2,286046999.2,N
1599299095.0,286046999.6,N
1599299095.9,286046999.6,N
1599299115.8,286046999.6,N
1599299135.6,286046996.8,N
1599299155.4,286046997.0,N
1599299175.3,286046999.2,N
1599299195.1,286047000.6,N
1599299215.8,286047000.0,N
1599299235.7,286046999.7,N
1599299255.5,286047002.7,N
1599299275.4,286047002.0,N
1599299295.2,286047002.1,N
1599299315.0,286047002.6,N
1599299315.9,286047002.6,N
1599299335.8,286047004.3,N
1599299355.6,286047004.0,N
1599299375.5,286047004.2,N
1599299395.3,286047005.8,N
1599299415.1,286047005.8,N
1599299435.9,286047005.7,N
1599299455.7,286047003.4,N
1599299475.5,286047005.5,N
1599299495.4,286047002.9,N
1599299515.2,286047005.5,N
1599299535.0,286047003.0,N
1599299536.0,286047003.0,N
1599299555.8,286047004.6,N
1599299575.6,286047007.4,N
1599299595.5,286047005.2,N
1599299615.3,286047007.6,N
1599299635.1,286047006.9,N
1599299655.9,286047011.9,Y
1599299675.7,286047003.6,P
1599299695.9,286047005.5,P
1599299715.7,286047005.1,P
1599299735.5,286047005.2,Y
1599299755.4,286047000.9,P
1599299775.2,286047001.0,N
1599299795.1,286047002.6,N
1599299796.0,286047002.6,N
1599299815.8,286047002.6,N
1599299835.6,286047002.4,N
1599299855.5,286047002.1,N
1599299875.3,286047000.1,N
1599299895.1,286046999.9,N
1599299915.9,286047000.5,N
1599299935.7,286047001.0,N
1599299955.6,286047001.1,N
1599299975.4,286047001.0,N
1599299995.2,286047002.8,N
